Temp
21 20 20 21 19 21 23 23 22 21 23 22 19 18 20 19 18 17 16 15 15 16 19 20 22 22 22 21 21 20 19 19 18 17 16 15 15 15 15 16 16 16 16 15
19 19 20 21 22 23 23 22 21 21 23 22 19 19 20 18 18 20 20 17 17 16 16 18 20 21 21 22 21 20 20 19 18 18 17 17 16 16 16 17 16 16 16 16
19 21 22 23 23 23 22 22 21 22 21 20 19 19 20 21 19 18 20 21 19 18 17 16 17 20 21 21 21 21 20 20 19 19 18 17 16 16 16 16 17 17 17 16
20 21 22 23 23 22 22 22 22 22 19 20 20 19 19 22 20 19 18 16 19 17 17 18 18 18 20 21 22 22 21 20 20 19 18 17 17 16 17 17 17 17 17 17
21 22 22 22 22 22 21 22 22 21 20 19 19 19 19 21 22 20 18 18 19 18 17 17 19 19 21 21 22 22 21 21 20 19 19 18 17 18 18 17 17 17 17 17
20 22 21 21 22 22 22 22 18 16 16 17 18 19 20 21 22 23 21 18 19 18 16 17 20 20 20 21 22 22 21 21 20 19 19 18 18 18 17 17 17 18 17 17
19 21 22 22 22 20 20 17 17 19 18 18 20 18 21 22 22 22 21 20 18 17 16 16 16 17 19 20 21 21 21 20 20 19 19 19 19 18 18 18 18 18 18 18
18 20 19 20 21 20 18 18 16 21 19 20 20 19 23 22 22 21 21 22 20 17 16 16 17 18 18 19 20 21 20 20 20 20 19 19 19 19 19 19 18 18 18 18
17 20 20 20 20 21 20 18 19 20 18 18 19 20 23 23 22 23 21 19 19 18 17 16 16 18 18 19 20 21 21 21 21 20 20 19 19 19 19 19 19 19 19 19
20 20 19 20 20 20 20 19 19 16 20 20 19 20 23 23 25 24 22 19 19 18 17 16 16 17 19 20 22 22 22 22 22 21 20 20 20 20 20 19 19 20 20 19
19 20 19 19 19 18 18 18 18 16 15 18 18 20 20 24 23 22 21 20 19 18 18 17 16 19 20 20 21 22 21 21 21 21 21 20 20 20 20 20 20 20 20 19
18 17 16 17 18 17 17 17 17 16 19 15 15 18 22 20 20 21 20 20 19 19 17 17 16 18 18 19 20 21 21 21 22 22 21 21 21 20 20 20 21 21 20 19
18 17 17 18 18 18 18 17 17 16 14 16 15 20 21 20 21 20 21 22 20 19 18 17 16 15 18 19 19 20 21 21 22 21 21 20 20 20 20 21 21 21 20 20
19 16 17 17 20 17 18 18 17 18 15 18 20 22 23 23 20 19 21 20 19 18 18 17 16 15 18 19 19 20 20 21 21 21 20 20 21 21 21 22 21 21 20 20
18 17 16 17 17 18 18 18 18 16 19 19 20 20 22 23 24 22 22 22 20 19 18 18 18 17 17 18 19 20 21 21 21 20 20 21 21 21 21 21 21 21 20 20
15 16 17 17 18 17 18 19 19 18 19 19 20 20 23 20 19 18 18 20 19 19 19 19 18 18 18 19 19 20 20 21 21 20 21 21 21 21 21 21 21 20 20 19
15 15 16 15 19 17 17 19 20 20 19 20 18 21 23 21 19 21 22 22 20 20 20 18 19 19 20 20 21 20 21 21 20 20 21 20 21 21 21 21 20 20 19 19
14 14 14 14 17 16 20 20 20 20 21 20 21 22 23 23 22 22 22 20 19 19 20 19 19 20 21 22 21 23 21 21 21 20 20 20 20 20 20 20 20 19 19 19
15 14 12 15 13 19 20 20 20 20 19 19 20 21 21 22 19 19 18 18 20 21 20 19 22 23 23 21 23 22 20 20 19 19 19 19 20 19 19 19 19 19 18 18
14 16 16 11 13 15 19 20 20 20 19 20 20 20 20 19 18 21 20 19 18 18 19 19 22 23 21 22 23 20 19 19 18 19 20 19 20 19 19 20 19 19 18 18
14 12 14 15 15 17 18 19 21 19 19 21 21 19 18 18 18 20 17 18 18 18 19 21 21 20 22 22 20 19 19 18 20 22 20 20 20 20 20 19 19 19 18 17
15 12 14 14 14 15 18 19 20 20 21 22 23 22 22 17 19 20 19 18 18 19 19 21 19 19 21 21 19 18 17 21 21 20 20 20 20 19 19 19 19 18 17 16
14 16 16 15 17 18 18 19 19 19 18 18 17 17 18 18 20 20 19 20 18 18 18 19 18 18 20 20 19 17 19 19 20 19 19 19 19 18 18 17 17 16 15 15
10 9 8 10 16 11 10 16 17 18 19 20 21 19 16 18 18 18 18 18 17 16 16 19 19 17 17 20 19 19 19 19 19 19 18 17 17 16 16 16 17 16 14 14
10 10 9 8 10 12 13 12 13 14 14 15 16 15 16 16 17 17 17 16 16 16 19 18 16 16 18 19 20 20 19 18 18 17 17 16 15 15 15 16 16 16 16 16
9 9 9 10 12 12 12 14 14 14 14 15 16 15 16 15 16 16 15 15 16 16 18 18 19 18 20 19 19 20 19 18 17 15 14 14 14 14 14 14 13 14 15 14
Height
823 837 842 833 834 829 827 830 833 824 811 817 823 819 804 799 802 802 801 801 798 795 788 792 795 800 804 809 812 816 820 824 829 832 835 837 837 839 840 840 841 842 843 844
837 842 826 823 821 825 826 831 835 823 812 817 819 813 794 792 790 784 787 791 790 789 788 787 790 795 798 802 806 810 815 819 823 827 829 832 834 835 836 836 837 838 839 840
841 827 815 819 821 826 828 830 831 830 823 819 821 813 792 775 776 775 773 773 776 778 781 782 785 789 793 796 800 804 809 813 817 821 826 829 831 831 831 831 832 833 835 836
833 819 820 821 824 825 833 821 822 825 836 844 821 840 800 776 775 773 770 773 768 771 773 774 778 783 786 789 795 799 804 809 813 817 821 823 824 825 825 827 829 831 832 832
833 822 823 827 825 819 829 819 823 825 836 840 831 842 799 778 771 768 764 762 761 761 765 768 770 773 778 785 789 795 799 804 808 812 815 818 820 821 823 825 826 827 828 828
827 815 818 820 817 818 818 823 835 841 848 858 831 831 802 781 764 754 754 757 755 757 760 762 763 769 774 780 785 790 795 798 803 807 811 813 815 817 819 820 821 823 823 823
830 823 814 813 823 823 827 846 864 853 859 853 820 833 791 761 752 747 747 746 748 751 756 758 762 765 770 774 780 785 790 793 797 802 805 807 810 813 814 816 817 818 818 818
843 841 824 815 819 829 837 842 863 848 855 840 819 823 777 743 737 737 735 734 740 748 750 753 755 759 763 769 774 780 783 787 792 796 798 802 805 807 809 810 812 813 813 814
843 834 817 818 815 818 831 842 830 839 842 849 823 793 756 740 738 733 736 739 741 743 746 748 751 754 758 763 767 772 777 781 786 789 793 796 799 801 802 804 807 808 809 810
817 831 822 819 816 817 822 824 841 852 847 846 825 810 781 755 742 735 737 740 737 738 742 745 748 750 754 757 762 767 772 775 779 783 787 790 792 795 797 800 802 804 805 806
815 821 828 822 827 829 831 833 833 841 849 847 844 805 762 749 744 743 737 734 734 736 738 741 743 745 749 753 757 761 766 770 773 777 781 784 786 789 792 794 797 798 801 802
812 828 838 826 812 816 820 824 829 849 833 845 843 806 748 751 745 738 735 736 736 735 736 738 739 742 747 749 752 756 760 763 766 770 774 777 780 784 787 788 791 794 796 799
808 825 838 828 821 816 819 818 816 823 833 833 843 796 748 747 743 737 735 733 736 738 739 740 741 742 743 746 749 751 753 755 759 764 768 771 774 777 779 781 785 789 792 794
799 817 820 827 811 812 816 812 812 812 834 813 792 777 754 747 751 746 739 737 739 737 736 737 740 738 739 740 743 745 747 750 754 758 762 764 766 769 772 775 780 783 786 788
805 815 815 810 808 808 804 804 805 812 798 802 780 775 757 751 744 741 737 735 737 736 735 734 733 732 733 735 737 739 741 743 747 753 755 756 759 763 767 770 774 778 780 783
809 813 809 808 800 804 799 785 786 787 785 777 778 756 743 743 743 744 739 735 734 731 728 726 727 726 726 727 729 731 733 736 740 744 746 750 753 757 760 764 768 771 774 777
811 813 815 818 798 804 794 767 769 767 767 764 777 730 733 737 739 730 723 723 725 723 720 720 717 716 717 717 718 721 723 729 734 736 738 742 747 749 752 756 761 764 768 771
809 813 818 821 808 812 752 742 747 747 741 744 740 732 724 720 719 715 714 717 718 715 710 709 708 707 707 708 711 712 716 719 724 728 730 734 738 742 746 750 753 757 761 765
794 807 822 812 814 766 745 744 746 746 743 735 736 727 717 714 720 712 712 708 702 699 697 698 697 698 699 700 701 704 707 710 714 717 720 722 728 734 738 742 745 750 754 758
786 786 797 820 808 785 744 729 728 731 740 723 722 722 719 720 733 712 696 696 695 690 689 690 691 691 691 692 693 697 699 702 704 706 706 712 718 723 728 734 738 744 749 752
780 790 780 781 782 750 736 724 724 751 748 712 711 716 718 724 715 699 694 690 688 686 685 685 685 685 684 685 687 688 690 690 690 693 699 703 706 711 717 725 731 738 743 748
770 783 772 775 777 762 726 729 737 726 712 709 708 710 709 710 701 693 690 687 685 684 684 684 684 682 682 682 683 682 682 681 683 687 690 693 697 702 708 715 722 730 736 740
767 758 754 752 737 726 725 719 715 716 718 712 711 708 707 705 699 692 689 685 684 683 682 681 680 679 678 678 677 677 673 677 679 681 683 686 690 696 701 707 714 722 729 734
778 783 782 769 729 746 746 731 725 717 712 705 699 700 701 700 692 690 687 682 681 679 678 677 676 675 673 673 673 671 671 672 674 675 677 680 684 689 695 701 707 713 720 726
776 771 773 770 757 746 734 731 731 726 721 718 708 701 694 694 690 685 683 681 678 676 673 672 672 672 669 668 667 667 668 669 669 670 672 675 679 683 689 695 700 706 712 717
770 765 765 755 747 746 739 731 726 724 719 712 709 698 691 688 686 683 680 674 673 671 670 670 668 666 663 665 665 664 665 667 668 668 670 672 675 680 684 691 698 705 710 714
Wind_Speed
3 4 3 6 8 5 3 3 3 5 2 3 8 11 15 10 7 11 10 10 12 14 22 28 36 36 35 33 36 39 38 35 31 29 27 25 26 24 23 21 19 18 18 18
5 5 9 5 4 4 3 3 5 5 1 1 8 14 15 10 9 16 17 14 14 8 9 14 28 33 35 36 37 38 38 36 34 31 29 26 20 22 23 20 20 20 20 19
5 6 1 5 2 2 2 3 3 4 5 4 6 9 6 5 8 9 15 13 13 16 13 10 18 32 36 38 39 39 38 37 35 32 28 26 24 21 20 20 22 20 19 19
5 5 6 2 3 4 2 2 2 3 5 3 4 6 8 5 8 9 12 11 14 12 8 10 18 25 36 42 39 38 38 37 36 32 30 29 29 29 26 22 19 16 16 17
6 2 3 3 5 3 6 1 2 2 1 4 3 1 9 2 7 10 13 15 15 13 11 13 17 29 40 41 41 38 36 37 36 35 32 30 30 29 26 23 21 20 20 20
7 3 5 7 1 1 2 3 6 4 2 2 5 5 7 5 8 4 5 10 13 12 10 10 24 27 32 39 40 38 36 36 36 34 34 33 32 30 28 26 25 23 21 19
4 4 2 3 3 4 4 6 4 3 2 6 1 3 11 8 9 8 10 13 12 10 9 10 11 18 25 36 39 38 38 37 35 35 34 34 33 30 29 27 25 23 21 20
4 6 7 3 6 6 5 7 5 4 3 5 2 7 7 8 7 9 9 10 10 10 9 11 13 21 27 35 39 39 39 38 36 36 36 34 32 31 30 27 25 23 22 20
5 5 1 2 1 5 3 4 4 2 1 2 5 8 10 7 8 5 9 8 11 11 10 11 11 23 27 32 39 41 39 38 37 38 36 35 33 32 31 27 24 22 20 17
4 1 2 1 1 2 3 3 3 2 3 5 6 6 8 9 7 5 6 10 10 9 9 9 8 22 29 35 39 39 40 39 38 37 36 35 34 31 29 25 24 20 16 13
5 4 2 1 5 8 1 2 0 2 5 4 3 6 6 6 7 10 10 9 9 10 10 9 9 23 31 33 37 39 39 39 37 36 36 35 33 31 28 26 23 20 15 13
7 4 5 11 3 5 5 9 7 4 5 4 3 8 4 8 9 6 9 6 4 5 8 8 9 18 23 30 34 38 39 40 39 37 36 36 34 30 29 27 24 20 17 13
6 3 2 7 4 0 5 6 6 3 3 7 5 7 2 7 10 9 5 4 4 6 6 7 5 9 20 27 31 36 39 42 40 38 37 36 35 33 31 29 26 21 18 15
4 5 8 7 5 4 4 5 7 8 4 6 18 18 21 16 11 10 10 6 7 8 9 8 7 9 20 26 31 35 38 40 40 38 38 38 38 36 34 31 27 23 20 16
2 6 5 6 6 4 6 9 10 12 16 13 2 20 17 20 20 13 5 6 7 9 8 10 12 11 17 23 29 33 38 41 40 38 38 41 40 38 35 33 30 26 22 19
1 4 2 6 7 8 16 21 18 17 18 21 19 32 16 14 7 9 10 9 9 9 10 11 10 10 14 24 29 34 36 40 40 40 42 42 40 39 37 36 33 29 25 21
3 4 2 5 4 8 14 20 23 18 15 15 17 32 19 16 12 19 21 16 13 11 10 10 13 14 22 26 33 33 40 37 38 40 42 42 42 41 40 38 35 32 29 24
5 4 4 4 3 12 8 2 6 19 22 21 22 24 23 20 16 19 15 12 10 11 11 10 10 17 26 32 30 39 34 38 40 40 39 41 43 43 41 40 39 36 31 26
12 6 2 6 9 19 29 17 4 5 9 9 17 23 26 22 8 15 7 12 17 16 12 12 22 26 30 29 39 36 33 37 37 37 40 42 43 42 42 43 43 38 32 27
12 14 11 3 6 13 3 4 13 6 19 11 14 15 16 2 6 13 13 7 12 13 16 15 26 26 24 29 35 31 30 30 30 38 44 41 45 44 43 45 43 39 33 28
10 7 20 16 17 14 7 11 4 3 6 3 2 7 7 4 7 8 6 8 7 9 13 11 7 12 20 24 25 27 28 29 42 46 37 42 46 46 47 45 42 38 31 23
7 5 11 9 13 23 4 3 22 4 16 1 2 4 4 8 8 6 7 8 7 5 6 9 10 13 15 13 15 24 24 39 37 36 39 42 44 43 43 44 41 35 29 25
17 12 10 11 12 7 5 5 6 2 5 10 6 8 8 11 7 9 6 5 5 6 8 9 9 12 13 12 13 19 31 27 29 31 37 39 39 38 39 39 39 33 29 26
5 11 7 12 14 19 25 23 12 16 18 18 20 17 7 11 9 8 8 8 5 5 7 7 9 12 15 12 13 19 21 20 22 28 32 34 34 34 35 35 39 36 31 26
6 5 8 15 21 20 16 19 22 25 24 23 19 11 12 9 10 8 7 8 8 8 16 10 8 12 20 15 14 14 14 14 20 25 28 29 30 32 33 36 38 35 31 29
12 19 14 18 20 18 23 24 28 22 21 23 22 12 10 6 10 9 8 8 8 8 15 12 16 16 23 16 16 14 13 13 18 21 23 26 28 29 33 33 26 23 21 19
Wind_Direction
352 60 224 240 216 223 251 243 270 260 252 172 240 262 264 251 219 234 236 226 225 226 231 224 220 218 216 213 209 211 210 213 213 213 215 222 230 237 243 247 251 255 258 260
12 242 236 244 200 226 256 293 298 288 299 192 273 263 259 223 223 215 219 226 226 229 227 222 219 212 209 206 208 209 211 212 214 217 220 224 234 244 250 254 256 258 260 262
175 238 109 190 232 258 271 226 258 252 322 267 307 286 290 265 226 205 217 220 221 215 213 212 203 206 208 206 206 209 211 213 215 218 220 224 232 243 247 246 251 253 259 262
224 271 192 218 253 140 292 217 280 321 29 270 37 287 295 266 261 218 214 211 219 210 206 205 197 200 205 208 207 209 211 213 217 218 219 222 226 233 243 251 257 262 261 266
258 211 192 213 228 165 228 35 348 351 349 348 303 126 271 296 263 237 221 218 220 217 198 201 199 200 208 208 208 209 212 214 216 217 222 226 230 240 251 256 260 263 266 269
235 271 178 205 153 42 89 22 31 50 73 331 238 159 277 221 221 262 221 223 219 213 207 205 201 197 203 209 209 210 210 214 216 218 222 227 234 240 245 251 257 263 267 270
318 223 219 145 125 12 78 55 329 339 348 229 217 173 252 261 240 225 215 212 211 203 196 188 183 184 196 204 208 208 209 214 216 219 223 228 235 240 246 252 257 264 271 276
184 311 172 189 178 185 181 158 164 244 240 282 333 240 253 233 253 244 221 214 197 194 197 191 192 192 195 202 208 209 211 217 218 220 224 228 233 238 244 250 255 263 271 282
161 271 50 17 54 142 177 184 193 137 330 6 248 289 294 289 264 238 223 184 199 203 193 194 190 195 197 201 207 211 213 217 220 222 225 227 230 234 240 246 254 263 271 280
215 289 36 298 293 50 150 180 75 5 241 261 281 274 242 322 304 286 222 218 212 203 190 192 193 197 203 206 210 211 215 218 220 222 225 228 229 233 238 245 249 254 261 267
178 139 247 83 208 190 112 273 174 147 164 202 297 268 218 264 289 265 258 230 204 193 198 195 198 203 206 208 210 212 215 218 221 222 224 227 230 232 236 240 243 242 247 253
210 157 197 209 235 184 180 201 159 143 242 234 167 265 282 284 291 274 253 249 275 221 204 204 198 196 201 207 210 213 216 218 221 222 224 227 230 230 232 234 233 231 238 247
183 216 315 326 4 256 208 204 186 134 93 211 164 260 263 335 356 356 289 244 232 237 229 227 204 199 204 209 212 214 217 220 222 223 225 227 229 228 227 227 225 225 233 242
99 172 180 197 208 142 205 215 209 183 192 224 237 275 276 296 303 326 339 317 282 236 213 216 219 214 214 213 214 217 221 224 225 225 224 226 226 224 223 222 221 221 226 236
196 216 199 237 239 273 249 241 222 210 225 218 166 242 257 261 275 277 275 294 283 257 233 221 216 217 216 215 219 222 226 226 225 225 225 227 226 225 222 221 219 218 222 229
34 267 242 267 270 257 266 259 245 237 233 244 253 264 252 249 281 284 266 266 263 260 243 228 235 221 211 214 218 222 226 227 223 222 225 227 226 225 222 220 217 217 220 225
199 160 83 254 248 300 277 250 246 244 222 228 225 251 269 262 244 249 260 267 249 252 246 233 222 217 223 218 218 218 225 225 225 222 224 227 227 225 222 219 216 216 218 222
201 176 170 231 104 246 251 283 251 234 240 228 243 256 256 259 254 251 248 257 260 249 245 235 229 230 230 230 225 229 224 222 222 223 222 225 227 228 224 219 217 216 216 220
201 180 244 223 218 272 276 288 267 200 268 222 227 247 257 265 284 268 227 221 237 245 246 237 239 242 245 231 233 225 222 219 216 218 222 223 224 225 224 221 219 216 214 216
195 208 213 167 218 236 308 211 260 209 273 226 218 244 255 300 278 278 255 243 244 245 241 239 257 260 250 247 242 220 219 215 212 220 224 221 225 222 222 224 220 215 214 218
201 208 215 222 240 263 227 270 72 132 234 313 154 248 268 195 214 256 301 272 245 262 259 252 261 257 260 261 246 221 222 218 225 231 223 224 225 223 226 223 220 214 212 212
251 188 216 220 230 256 161 256 233 250 270 256 316 294 263 239 272 266 287 297 289 277 299 301 283 279 289 284 252 231 227 237 235 229 226 225 226 220 221 221 217 208 206 206
234 236 238 209 233 265 299 240 239 166 241 289 293 275 260 278 271 293 286 298 295 283 286 300 286 289 293 290 269 249 253 250 240 230 225 224 224 219 218 212 206 195 199 203
250 324 323 346 290 314 309 309 332 316 303 290 286 284 256 255 256 253 276 292 278 244 250 280 291 284 287 296 282 266 268 262 244 227 223 220 217 213 213 209 201 195 195 200
253 318 280 285 291 306 296 314 321 311 315 318 318 280 260 248 266 246 249 256 259 270 284 291 268 269 281 301 297 288 274 251 231 226 222 215 212 204 201 199 197 199 206 209
250 257 256 261 264 259 273 284 291 292 299 305 303 305 312 290 274 268 261 250 246 250 267 278 280 281 287 295 292 286 268 252 230 219 213 207 200 194 188 187 186 198 208 210